Zabol, Iran

6:52 AM +0430 on March 26, 2017 (GMT +0430)
Zabol

Weather History for OIZB - April, 2013

Change the Weather History Date:

Friday, April 12, 2013

  Actual Average Record
Temperature  
Mean Temperature 77 °F -  
Max Temperature 94 °F - - ()
Min Temperature 60 °F - - ()
Cooling Degree Days 12    
Growing Degree Days 27 (Base 50)    
Moisture  
Dew Point 48 °F    
Average Humidity 37    
Maximum Humidity 77    
Minimum Humidity 8    
Precipitation  
Precipitation 0.08 in - - ()
Sea Level Pressure  
Sea Level Pressure 29.85 in    
Wind  
Wind Speed 4 mph ()    
Max Wind Speed 12 mph    
Max Gust Speed -    
Visibility 6.1 miles    
Events      
T = Trace of Precipitation, MM = Missing Value Source: Averaged Metar Reports

Daily Weather History Graph

Daily Weather History Graph

Search for Another Location

Airport or City:

Trip Planner

Search our weather history database for the weather conditions in past years. The results will help you decide how hot, cold, wet, or windy it might be!

Date:

Astronomy

Apr. 12, 2013 Rise Set
Actual Time 5:59 AM +0430 6:50 PM +0430
Civil Twilight 5:34 AM +0430 7:14 PM +0430
Nautical Twilight 5:05 AM +0430 7:44 PM +0430
Astronomical Twilight 4:35 AM +0430 8:14 PM +0430
Moon 7:00 AM +0430 (4/12) 8:48 PM +0430 (4/12)
Length of Visible Light 13h 39m
Length of Day
12h 50m
Waxing Crescent, 4% of the Moon is Illuminated
Apr 12
Waxing Crescent
Apr 18
First Quarter
Apr 26
Full
May 2
Last Quarter
May 10
New

Hourly Weather History & Observations

Time (+0430) Temp. Dew Point Humidity Pressure Visibility Wind Dir Wind Speed Gust Speed Precip Events Conditions
1:30 AM 68.0 °F 53.6 °F 60% 29.83 in 6.2 mi North 11.5 mph - N/A   Scattered Clouds
4:30 AM 64 °F 52 °F 56% 29.75 in 6 mi Calm Calm - -   Partly Cloudy
4:30 AM 64.4 °F 51.8 °F 64% 29.83 in - Calm Calm - N/A   Clear
6:30 AM 60.8 °F 53.6 °F 77% 29.86 in 6.2 mi SSW 4.6 mph - N/A   Partly Cloudy
7:00 AM 62.6 °F 53.6 °F 72% 29.89 in 6.2 mi SW 6.9 mph - N/A   Partly Cloudy
7:30 AM 64.4 °F 53.6 °F 68% 29.89 in 6.2 mi WSW 6.9 mph - N/A   Partly Cloudy
8:00 AM 69.8 °F 55.4 °F 60% 29.89 in - South 4.6 mph - N/A   Clear
8:30 AM 71.6 °F 55.4 °F 57% 29.92 in - NE 11.5 mph - N/A   Clear
9:00 AM 73.4 °F 55.4 °F 53% 29.92 in - ENE 6.9 mph - N/A   Clear
9:30 AM 77.0 °F 53.6 °F 44% 29.89 in - SSE 6.9 mph - N/A   Clear
10:30 AM 85 °F 51 °F 21% 29.82 in 6 mi 2.2 mph - -   Clear
10:30 AM 84.2 °F 51.8 °F 33% 29.89 in - Variable 2.3 mph - N/A   Clear
11:30 AM 87.8 °F 50.0 °F 27% 29.89 in - NW 4.6 mph - N/A   Clear
12:30 PM 89.6 °F 48.2 °F 24% 29.89 in - South 6.9 mph - N/A   Clear
1:30 PM 91.4 °F 44.6 °F 20% 29.86 in - WNW 4.6 mph - N/A   Clear
2:30 PM 93.2 °F 42.8 °F 17% 29.83 in - SW 6.9 mph - N/A   Clear
3:30 PM 93.2 °F 42.8 °F 17% 29.83 in 6.2 mi Variable 2.3 mph - N/A   Partly Cloudy
4:30 PM 94 °F 40 °F 8% 29.74 in 6 mi 2.2 mph - -   Scattered Clouds
4:30 PM 93.2 °F 41.0 °F 16% 29.80 in 6.2 mi Variable 2.3 mph - N/A   Partly Cloudy
5:30 PM 93.2 °F 39.2 °F 15% 29.80 in 6.2 mi Variable 2.3 mph - N/A   Partly Cloudy
6:30 PM 89.6 °F 42.8 °F 20% 29.80 in - Variable 2.3 mph - N/A   Clear
7:30 PM 84.2 °F 44.6 °F 25% 29.83 in - Variable 2.3 mph - N/A   Clear
8:30 PM 78.8 °F 42.8 °F 28% 29.83 in - ENE 4.6 mph - N/A   Clear
9:30 PM 77.0 °F 44.6 °F 32% 29.86 in - East 4.6 mph - N/A   Clear
10:30 PM 77 °F 44 °F 21% 29.79 in 6 mi Calm Calm - -   Clear
10:30 PM 77.0 °F 44.6 °F 32% 29.86 in - Calm Calm - N/A   Clear